{"data":{"norad_id":62190,"epoch":"2026-05-25T05:11:31.083072Z","epoch_age_seconds":56088,"freshness":"FRESH","line1":"1 62190U 24228A   26145.21633198  .00029756  00000+0  29560-3 0  9990","line2":"2 62190  42.9790 142.6771 0000574  55.5507 304.5412 15.65167115 83987","mean_motion":15.65167115,"eccentricity":5.74e-5,"inclination_deg":42.979,"raan_deg":142.6771,"arg_perigee_deg":55.5507,"mean_anomaly_deg":304.5412,"bstar":0.0002956,"rev_number":8398,"period_min":92.002955224369,"perigee_km":372.37068050979,"apogee_km":373.14568327667,"semimajor_km":6750.8951818932,"source":"CELESTRAK","updated_at":"2026-05-25T13:38:02.829208Z"}}